Location: American Canyon
(38.1966°N, 122.1514°W)
Time: 17:01:23
(UTC+00:00)

COSMOS 2406 - Pass Details

Date: 29 October 2020
Orbit: 843 x 864 km, 71.0° (Epoch: 23 November)

Event Time Altitude Azimuth Distance (km) Brightness Sun altitude
Exits shadow 12:41:47 26° 328° (NNW) 1,607 4.4 -22.2°
Drops below altitude 10° 12:45:12 10° 2° (N) 2,471 5.6 -21.5°
Sets 12:47:58 0° 13° (NNE) 3,411 6.5 -21.0°
